Location: Bogis-Bossey
(46.3500°N, 6.1667°E)
Time: 16:51:38
(UTC+00:00)

ADEOS Rocket - Pass Details

Date: 17 August 2022
Orbit: 858 x 1306 km, 98.8° (Epoch: 01 October)

Event Time Altitude Azimuth Distance (km) Brightness Sun altitude
Exits shadow 22:49:57 74° 181° (S) 1,203 3.2 -29.4°
Maximum altitude 22:50:41 85° 254° (WSW) 1,156 3.2 -29.5°
Drops below altitude 10° 22:57:20 10° 345° (NNW) 2,893 6.4 -29.7°
Sets 22:59:44 0° 346° (NNW) 3,790 7.3 -29.8°
